Погода в Плайя-Параисо

Испания     37°37′45″N   0°43′38″E
темп.,
°C
ветер,
м/с
пор.,
м/с
влажн.,
%
обл.,
%
осадки,
мм/ч
давл.,
гПа
погр.,
м
25 января, пн
пн2501:00+15с2369100 0.0 101527
04:00+14зсз1269100 0.0 101523
07:00+14ююз347596 0.0 101442
10:00+15зюз346658 0.0 1015117
13:00+19зюз795742 0.0 1014401
16:00+19зюз8105892 0.0 1012430
19:00+18зюз7116296 0.0 1013169
22:00+17зюз8116676 0.0 1015165
26 января, вт
вт2601:00+16зсз577038 0.0 101798
04:00+15ссз46740 0.0 101891
07:00+14вюв23822 0.0 102144
10:00+14ю23830 0.0 102381
13:00+16ю227827 0.0 1023202
16:00+17ююз557216 0.0 1022276
19:00+16юз567541 0.0 102385
22:00+15з3478100 0.0 102427
27 января, ср
ср2701:00+15з347773 0.0 102429
04:00+16зсз457426 0.0 102329
07:00+16з567344 0.0 102376
10:00+16зсз567522 0.0 1024121
13:00+19сз676411 0.0 1025252
16:00+20сз67600 0.0 1023312
19:00+18зсз57650 0.0 102475
22:00+17сз79701 0.0 1025139
28 января, чт
чт2801:00+16з57741 0.0 102580
04:00+16з457313 0.0 102444
07:00+15з34757 0.0 102429
10:00+16з34730 0.0 102654
13:00+18юз23660 0.0 1025158
16:00+19ююз566233 0.0 1023180
19:00+16юз567317 0.0 102364
22:00+16зюз567461 0.0 102454
29 января, пт
пт2901:00+16зюз457368 0.0 102331
04:00+16юз4573100 0.0 102130
07:00+16юз457489 0.0 102028
10:00+16юз45727 0.0 102154
13:00+18ююз566330 0.0 1020143
16:00+18юз786660 0.0 1018144
19:00+16юз567780 0.0 101868
22:00+15юз3378100 0.0 101826